Location: Kalberh�ni
(46.4610°N, 7.2453°E)
Time: 19:32:52
(UTC+00:00)

Cosmos 1626 - Pass Details

Date: 24 October 2021
Orbit: 487 x 492 km, 82.5° (Epoch: 03 December)

Event Time Altitude Azimuth Distance (km) Brightness Sun altitude
Exits shadow 05:15:33 - 233° (SW) 2,309 5.1 -8.5°
Reaches altitude 10° 05:17:34 10° 251° (WSW) 1,689 4.3 -8.1°
Maximum altitude 05:19:57 16° 291° (WNW) 1,354 3.7 -7.7°
Drops below altitude 10° 05:22:20 10° 331° (NNW) 1,699 4.5 -7.3°
Sets 05:25:07 0° 354° (N) 2,587 5.6 -6.9°
